Regional Weather Roundup
Issued by NWS

Home | Current Version | Previous Version | Graphics & Text | Print | Product List | Glossary On
Versions: 1 2 3 4 5 6 7 8 9 10 11 12 13 14 15 16 17 18 19 20 21 22 23 24 25 26 27 28 29 30 31 32 33 34 35 36 37 38 39 40 41 42 43 44 45 46 47 48 49 50
000
ASUS45 KBOU 031107
RWRCO

WEATHER ROUNDUP FOR COLORADO
NATIONAL WEATHER SERVICE DENVER/BOULDER CO
500 AM MDT SUN MAY 03 2015

NOTE: "FAIR" INDICATES FEW OR NO CLOUDS BELOW 12000 FEET WITH NO
SIGNIFICANT WEATHER AND/OR OBSTRUCTIONS TO VISIBILITY.

COZ001>005-013-030-031-031200-
...NORTHWEST COLORADO...

CITY           SKY/WX    TMP DP  RH WIND       PRES   REMARKS
CRAIG          PTCLDY    37  34  89 CALM      30.02S
HAYDEN         PTCLDY    41  34  75 SE10      30.03S
MEEKER         MOCLDY    43  35  73 MISG      30.01S
MOUNT WERNER   NOT AVBL
STEAMBOAT SPGS PTCLDY    37  32  82 CALM      30.05F
WALDEN         PTCLDY    32  30  93 SE3       30.10F
$$

COZ006>008-011-031200-
...WEST CENTRAL VALLEYS...

CITY           SKY/WX    TMP DP  RH WIND       PRES   REMARKS
GRAND JUNCTION PTCLDY    57  36  45 CALM      29.92R
MONTROSE       CLOUDY    56  32  40 SE10      30.01S
EAGLE          MOCLDY    39  36  87 CALM      30.11S
RIFLE          MOCLDY    50  37  61 CALM      30.01R
DELTA          PTCLDY    56  33  41 N10       29.98R
NUCLA          MOCLDY    54  30  40 E9        30.05S
$$

COZ017>023-064>068-031200-
...SOUTHWEST COLORADO...

CITY           SKY/WX    TMP DP  RH WIND       PRES   REMARKS
DURANGO        MOCLDY    43  34  70 NE3       30.09S
CORTEZ         PTCLDY    45  36  70 E6        30.04S
PAGOSA SPRINGS MOCLDY    43  32  64 CALM      30.14F
TELLURIDE      MOCLDY    44  27  52 SE5       30.20S
WOLF CREEK PAS NOT AVBL
$$

COZ009-010-012-014-032>034-037-058>063-031200-
...CENTRAL COLORADO...

CITY           SKY/WX    TMP DP  RH WIND       PRES   REMARKS
ASPEN          PTCLDY    37  32  82 CALM      30.10F
BUENA VISTA    NOT AVBL
COPPER MTN     PTCLDY    37  23  56 S8        30.28F
BERTHOUD PASS  FAIR      30  23  74 W30G40    30.27R WCI  15
COTTONWOOD PAS PTCLDY    41  32  70 S5        30.21S
GUNNISON       PTCLDY    36  27  69 CALM      30.17F
KREMMLING      PTCLDY    34  30  86 CALM      30.12S
LEADVILLE      PTCLDY    29  26  89 SE3       30.20F
MONARCH PASS   PTCLDY    32  28  86 W18       30.39S WCI  20
SALIDA         PTCLDY    44  37  75 NW9       30.20R
SUNLIGHT       PTCLDY    37  28  70 CALM      30.25F
WILKERSON PASS PTCLDY    32  30  93 W7        30.28S WCI  26
$$

COZ069>075-031200-
...SAN LUIS VALLEY/SANGRE DE CRISTO MOUNTAINS...

CITY           SKY/WX    TMP DP  RH WIND       PRES   REMARKS
ALAMOSA        CLEAR     38  34  85 N6        30.12S
LA VETA PASS   CLEAR     39  28  65 MISG      30.21S
SAGUACHE       PTCLDY    37  32  81 N9        30.15F
$$

COZ035-036-038>040-031200-
...NORTHERN COLORADO FRONT RANGE...

CITY           SKY/WX    TMP DP  RH WIND       PRES   REMARKS
DENVER INTL AP MOCLDY    52  37  56 SW14      29.92S
DMNS CITY PARK   N/A     50  37  60 E3        29.92S
AURORA         MOCLDY    51  37  59 S8        29.95S
FRONT RANGE AP NOT AVBL
ERIE MUNI ARPT PTCLDY    44  40  84 CALM      29.92R
BOULDER MUN AP PTCLDY    59  32  36 SW5       29.91S
CENTENNIAL     MOCLDY    55  35  47 SW13      29.95F
BROOMFIELD     PTCLDY    54  36  50 S5        29.94S
FORT COLLINS   CLEAR     46  37  71 SE5       29.92S
LONGMONT       CLEAR     46  39  77 CALM      29.92F
$$

COZ041-046-047-076>085-087-088-031200-
...PIKES PEAK/PALMER DIVIDE AND SOUTHERN FOOTHILLS...

CITY           SKY/WX    TMP DP  RH WIND       PRES   REMARKS
COLO. SPRINGS  MOCLDY    48  39  71 N7        29.99F
A. F. ACADEMY  PTCLDY    56  33  42 VRB5      30.00F
ELLICOTT       PTCLDY   N/A N/A N/A N3        29.98S
FALCON         PTCLDY    49  35  58 W7        30.02F
FORT CARSON    PTCLDY    49  39  68 N8        29.96F
LIMON          CLEAR     43  38  82 N9        29.93S
MONUMENT HILL  PTCLDY    46  32  57 SW12      30.01F
TRINIDAD       CLEAR     45  35  68 W12       29.98F
$$

COZ042>045-048>051-090-091-031200-
...NORTHEAST COLORADO...

CITY           SKY/WX    TMP DP  RH WIND       PRES   REMARKS
GREELEY ARPT   CLEAR     43  34  70 S6        29.90S
AKRON          CLEAR     52  41  66 W16       29.88S
BURLINGTON     CLEAR     50  42  74 W13       29.85F
WRAY           CLEAR     48  44  87 W6        29.83S
STERLING       CLEAR     45  43  93 S3        29.85S
HOLYOKE        NOT AVBL
FORT MORGAN    CLEAR     47 -16   6 W7        29.89S
$$

COZ086-089-092>099-031200-
...SOUTHEAST COLORADO...

CITY           SKY/WX    TMP DP  RH WIND       PRES   REMARKS
PUEBLO         PTCLDY    50  42  74 NW9       29.91F
LA JUNTA       PTCLDY    52  43  71 MISG      29.88F
LAMAR          MOCLDY    50  46  86 SW5       29.86F
SPRINGFIELD      N/A     54  40  59 W10       29.89F
$$


USA.gov is the U.S. government's official web portal to all federal, state and local government web resources and services.